Вернуться в каталог

SL-12 R/B(2)

АктивенMEO
NORAD 33383·ROCKET BODY·🇷🇺 Russia

Запущен Sep 25, 2008 с Baikonur Cosmodrome

Loading…

Ближайшие Пролёты (ближайшие 24 часа)

TLE

УстаревающийSource: Space-Track

Эпоха: Aug 30, 2026, 13:29 UTC

1 33383U 08046F   26242.56196159 -.00000023  00000-0  00000+0 0  9991
2 33383  65.4139 312.0309 0021179 198.0992 160.3650  2.13271662139640

Отслеживайте SL-12 R/B(2) в реальном времени с AllMySat

Download on the App Store